Content
SEND FEEDBACK

Daily
Averages
Monthly
Summary
United States of America

ROCK HILL, NEW YORK


Home > North America > United States > New York
Elevation: 1260 feet     Latitude: 41 35N     Longitude: 074 37W

WEATHER
 
SELECT A DAY
Number of Records: 443,433;   Date Range: 1/1/95 - 7/26/14
 
SHARE

PRINT THIS DATA

[ ← Previous Day ]
WEATHER ALMANAC - MARCH 14, 2014
[ Next Day → ]
[ °C ]   °F
Weather ElementAverageHighLow
Barometer29.98 in30.09 in (8:35 am)29.82 in (11:55 pm)
Wind Speed5.4 mph16.1 mph (3:15 pm)
Wind Gust20.7 mph (3:35 pm)
Weather ElementAverage
Visibility10 mi
Wind DirectionSE (138.6 °)

Weather ElementTotal
Precipitation---
Heating Degree Days65 (Base 65)
Averaged from 71 records on March 14, 2014
WEATHER CONDITIONS BREAKOUT
WIND DIRECTION BREAKOUT
WEATHER BY HOUR - MARCH 14, 2014
[ °C ]   °F
Local TimeTemperatureDewpointHumidityBarometerVisibilityWind DirectionWind SpeedGust SpeedPrecipitationEventsConditions
12:35 AM0.0 °F0.0 °F30.00 in10.0 miWNW (300°)10.4 mph19.6 mphClear
12:55 AM0.0 °F0.0 °F30.00 in10.0 miWNW (290°)9.2 mph17.3 mphClear
1:15 AM0.0 °F0.0 °F30.00 in10.0 miWNW (290°)8.1 mphPartly Cloudy
1:35 AM0.0 °F0.0 °F30.00 in10.0 miWNW (290°)8.1 mphScattered Clouds
1:55 AM0.0 °F0.0 °F30.01 in10.0 miWNW (300°)5.8 mphMostly Cloudy
2:15 AM0.0 °F0.0 °F30.01 in10.0 miWNW (300°)5.8 mphOvercast
2:35 AM0.0 °F0.0 °F30.01 in10.0 miWest (270°)4.6 mphOvercast
2:55 AM0.0 °F0.0 °F30.01 in10.0 miWest (260°)3.5 mphScattered Clouds
3:15 AM0.0 °F0.0 °F30.01 in10.0 miWest (270°)3.5 mphClear
3:35 AM0.0 °F0.0 °F30.01 in10.0 miWest (270°)4.6 mphClear
3:55 AM0.0 °F0.0 °F30.02 in10.0 miCalmClear
4:15 AM0.0 °F0.0 °F30.03 in10.0 miCalmClear
4:35 AM0.0 °F0.0 °F30.04 in10.0 miCalmScattered Clouds
4:55 AM0.0 °F0.0 °F30.04 in10.0 miWSW (250°)3.5 mphScattered Clouds
5:15 AM0.0 °F0.0 °F30.04 in10.0 miSW (230°)4.6 mphClear
5:35 AM0.0 °F0.0 °F30.05 in10.0 miSW (230°)4.6 mphClear
5:55 AM0.0 °F0.0 °F30.05 in10.0 miSW (230°)4.6 mphClear
6:15 AM0.0 °F0.0 °F30.05 in10.0 miSW (230°)3.5 mphScattered Clouds
6:35 AM0.0 °F0.0 °F30.05 in10.0 miCalmMostly Cloudy
6:55 AM0.0 °F0.0 °F30.06 in10.0 miCalmOvercast
7:15 AM0.0 °F0.0 °F30.07 in10.0 miCalmMostly Cloudy
7:35 AM0.0 °F0.0 °F30.07 in10.0 miCalmMostly Cloudy
7:55 AM0.0 °F0.0 °F30.07 in10.0 miCalmOvercast
8:15 AM0.0 °F0.0 °F30.07 in10.0 miCalmOvercast
8:35 AM0.0 °F0.0 °F30.09 in10.0 miCalmOvercast
8:55 AM0.0 °F0.0 °F30.08 in10.0 miCalmOvercast
9:15 AM0.0 °F0.0 °F30.09 in10.0 miCalmOvercast
9:35 AM0.0 °F0.0 °F30.08 in10.0 miCalmOvercast
9:55 AM0.0 °F0.0 °F30.09 in10.0 miCalmOvercast
10:15 AM0.0 °F0.0 °F30.08 in10.0 miCalmOvercast
10:35 AM0.0 °F0.0 °F30.07 in10.0 miCalmOvercast
10:55 AM0.0 °F0.0 °F30.06 in10.0 miSE (140°)3.5 mphOvercast
11:15 AM0.0 °F0.0 °F30.06 in10.0 miSouth (170°)5.8 mphOvercast
11:35 AM0.0 °F0.0 °F30.06 in10.0 miSSE (160°)4.6 mphOvercast
11:55 AM0.0 °F0.0 °F30.05 in10.0 miESE (120°)4.6 mphOvercast
12:15 PM0.0 °F0.0 °F30.05 in10.0 miSE (130°)5.8 mphOvercast
12:35 PM0.0 °F0.0 °F30.04 in10.0 miSSE (150°)4.6 mphOvercast
12:55 PM0.0 °F0.0 °F30.03 in10.0 miSE (140°)6.9 mphScattered Clouds
1:15 PM0.0 °F0.0 °F30.02 in10.0 miSE (140°)6.9 mphClear
1:35 PM0.0 °F0.0 °F30.00 in10.0 miSSE (150°)6.9 mphClear
1:55 PM0.0 °F0.0 °F29.99 in10.0 miSSE (160°)11.5 mph18.4 mphClear
2:15 PM0.0 °F0.0 °F29.98 in10.0 miSSE (160°)10.4 mphClear
2:35 PM0.0 °F0.0 °F29.96 in10.0 miSSE (150°)13.8 mphClear
2:55 PM0.0 °F0.0 °F29.96 in10.0 miSSE (160°)15.0 mph18.4 mphClear
3:15 PM0.0 °F0.0 °F29.95 in10.0 miSSE (150°)16.1 mph19.6 mphClear
3:35 PM0.0 °F0.0 °F29.94 in10.0 miSSE (160°)12.7 mph20.7 mphClear
3:55 PM0.0 °F0.0 °F29.93 in10.0 miSouth (180°)15.0 mph20.7 mphClear
4:15 PM0.0 °F0.0 °F29.92 in10.0 miSouth (180°)15.0 mph19.6 mphClear
4:35 PM0.0 °F0.0 °F29.93 in10.0 miSouth (190°)12.7 mph19.6 mphClear
4:55 PM0.0 °F0.0 °F29.92 in10.0 miSouth (180°)13.8 mph18.4 mphClear
5:15 PM0.0 °F0.0 °F29.92 in10.0 miSouth (190°)10.4 mph19.6 mphClear
5:35 PM0.0 °F0.0 °F29.91 in10.0 miSouth (190°)10.4 mphClear
5:55 PM0.0 °F0.0 °F29.90 in10.0 miSouth (190°)9.2 mphClear
6:15 PM0.0 °F0.0 °F29.90 in10.0 miSouth (180°)8.1 mphClear
6:35 PM0.0 °F0.0 °F29.90 in10.0 miSouth (180°)5.8 mphClear
6:55 PM0.0 °F0.0 °F29.89 in10.0 miSSE (160°)5.8 mphClear
7:15 PM0.0 °F0.0 °F29.89 in10.0 miSouth (180°)6.9 mphClear
7:35 PM0.0 °F0.0 °F29.89 in10.0 miSouth (170°)6.9 mphClear
7:55 PM0.0 °F0.0 °F29.88 in10.0 miSouth (170°)6.9 mphClear
8:15 PM0.0 °F0.0 °F29.88 in10.0 miSouth (170°)5.8 mphClear
8:35 PM0.0 °F0.0 °F29.89 in10.0 miSSW (210°)3.5 mphClear
8:55 PM0.0 °F0.0 °F29.89 in10.0 miSouth (180°)4.6 mphClear
9:15 PM0.0 °F0.0 °F29.88 in10.0 miESE (110°)4.6 mphClear
9:35 PM0.0 °F0.0 °F29.87 in10.0 miEast (80°)3.5 mphClear
9:55 PM0.0 °F0.0 °F29.87 in10.0 miCalmClear
10:15 PM0.0 °F0.0 °F29.86 in10.0 miEast (90°)4.6 mphClear
10:35 PM0.0 °F0.0 °F29.86 in10.0 miEast (100°)4.6 mphMostly Cloudy
10:55 PM0.0 °F0.0 °F29.85 in10.0 miESE (110°)3.5 mphPartly Cloudy
11:15 PM0.0 °F0.0 °F29.85 in10.0 miCalmClear
11:35 PM0.0 °F0.0 °F29.84 in10.0 miEast (80°)3.5 mphScattered Clouds
11:55 PM0.0 °F0.0 °F29.82 in10.0 miESE (120°)3.5 mphOvercast
Hourly data recorded from KMSV, located miles away from Rock Hill, New York







STORIES FROM OUR PARTNERS